Location: Gajan
(43.0218°N, 1.1244°E)
Time: 02:25:40
(UTC+00:00)

Meteor 2-3 Rocket - Pass Details

Date: 22 April 2021
Orbit: 840 x 887 km, 81.2° (Epoch: 15 May)

Event Time Altitude Azimuth Distance (km) Brightness Sun altitude
Rises 20:06:32 0° 355° (N) 3,482 7.5 -14.1°
Reaches altitude 10° 20:09:06 10° 1° (N) 2,533 6.6 -14.4°
Maximum altitude 20:14:38 47° 75° (ENE) 1,144 4.1 -15.3°
Enters shadow 20:17:48 24° 136° (SE) 1,724 4.7 -15.8°
